Location: Buchloe
(48.0161°N, 10.7316°E)
Time: 07:31:49
(UTC+02:00)

ISS - Pass Details

Date: 18 May 2018
Orbit: 402 x 407 km, 51.6° (Epoch: 24 May)

Event Time Altitude Azimuth Distance (km) Brightness Sun altitude
Exits shadow 03:21:04 - 289° (WNW) 1,856 -0.6 -16.7°
Reaches altitude 10° 03:22:04 10° 293° (WNW) 1,457 -1.1 -16.6°
Maximum altitude 03:25:13 44° 7° (N) 566 -2.7 -16.3°
Drops below altitude 10° 03:28:22 10° 82° (E) 1,456 -0.4 -16.0°
Sets 03:30:30 0° 89° (E) 2,314 0.5 -15.8°
